Previsão horária em Barra dos Coqueiros

Hoje, 27 Outubro, Terça-feira

Tempo Temperatura Precipitação Vento Pressão Humidade
00:00 +27°C° 0 mm 6 m/s 757 mmHg 81%
01:00 +27°C° 0 mm 7 m/s 756 mmHg 81%
02:00 +27°C° 0 mm 7 m/s 756 mmHg 82%
03:00 +27°C° 0 mm 6 m/s 756 mmHg 82%
04:00 +26°C° 0 mm 6 m/s 756 mmHg 81%
05:00 +26°C° 0.4 mm 6 m/s 756 mmHg 81%
06:00 +26°C° 0.4 mm 6 m/s 757 mmHg 81%
07:00 +26°C° 0.4 mm 6 m/s 757 mmHg 81%
08:00 +28°C° 0.9 mm 5 m/s 757 mmHg 76%
09:00 +29°C° 0.9 mm 4 m/s 758 mmHg 71%
10:00 +30°C° 0 mm 4 m/s 758 mmHg 70%
11:00 +32°C° 0.5 mm 5 m/s 758 mmHg 67%
12:00 +32°C° 0.5 mm 5 m/s 757 mmHg 64%
13:00 +33°C° 0.5 mm 6 m/s 757 mmHg 61%
14:00 +32°C° 3 mm 6 m/s 756 mmHg 67%
15:00 +30°C° 3 mm 5 m/s 755 mmHg 73%
16:00 +29°C° 3 mm 5 m/s 754 mmHg 79%
17:00 +28°C° 2.7 mm 5 m/s 755 mmHg 82%
18:00 +28°C° 2.7 mm 6 m/s 755 mmHg 84%
19:00 +27°C° 2.7 mm 6 m/s 756 mmHg 87%
20:00 +27°C° 0 mm 6 m/s 756 mmHg 86%
21:00 +27°C° 0 mm 6 m/s 757 mmHg 86%
22:00 +27°C° 0 mm 6 m/s 757 mmHg 86%
23:00 +26°C° 0 mm 5 m/s 757 mmHg 86%

Amanhã, 28 Outubro, Quarta-feira

Tempo Temperatura Precipitação Vento Pressão Humidade
00:00 +26°C° 0 mm 5 m/s 757 mmHg 86%
01:00 +26°C° 0 mm 4 m/s 757 mmHg 86%
02:00 +26°C° 0 mm 4 m/s 756 mmHg 86%
03:00 +26°C° 0 mm 5 m/s 756 mmHg 86%
04:00 +26°C° 0 mm 5 m/s 756 mmHg 86%
05:00 +26°C° 0 mm 6 m/s 756 mmHg 84%
06:00 +26°C° 0 mm 6 m/s 757 mmHg 83%
07:00 +26°C° 0 mm 6 m/s 757 mmHg 82%
08:00 +27°C° 0 mm 6 m/s 758 mmHg 77%
09:00 +28°C° 0 mm 6 m/s 758 mmHg 72%
10:00 +29°C° 0 mm 6 m/s 758 mmHg 67%
11:00 +30°C° 0 mm 6 m/s 758 mmHg 66%
12:00 +30°C° 0 mm 6 m/s 758 mmHg 65%
13:00 +32°C° 0 mm 6 m/s 757 mmHg 64%
14:00 +30°C° 0.2 mm 6 m/s 757 mmHg 67%
15:00 +30°C° 0.2 mm 7 m/s 756 mmHg 70%
16:00 +29°C° 0.2 mm 7 m/s 755 mmHg 73%
17:00 +29°C° 0 mm 7 m/s 756 mmHg 75%
18:00 +28°C° 0 mm 7 m/s 756 mmHg 77%
19:00 +27°C° 0 mm 7 m/s 757 mmHg 79%
20:00 +27°C° 0 mm 7 m/s 757 mmHg 79%
21:00 +27°C° 0 mm 7 m/s 758 mmHg 79%
22:00 +27°C° 0 mm 7 m/s 758 mmHg 79%
23:00 +27°C° 0 mm 7 m/s 758 mmHg 79%

Depois de amanhã, 29 Outubro, Quinta-feira

Tempo Temperatura Precipitação Vento Pressão Humidade
00:00 +27°C° 0 mm 6 m/s 758 mmHg 80%
01:00 +27°C° 0 mm 6 m/s 757 mmHg 80%
02:00 +27°C° 0 mm 5 m/s 757 mmHg 81%
03:00 +26°C° 0 mm 5 m/s 757 mmHg 82%
04:00 +26°C° 0 mm 4 m/s 757 mmHg 83%
05:00 +26°C° 0 mm 4 m/s 757 mmHg 84%
06:00 +26°C° 0 mm 4 m/s 758 mmHg 84%
07:00 +26°C° 0 mm 4 m/s 758 mmHg 84%
08:00 +28°C° 0.1 mm 5 m/s 759 mmHg 79%
09:00 +29°C° 0.1 mm 5 m/s 759 mmHg 73%
10:00 +30°C° 0.1 mm 6 m/s 759 mmHg 68%
11:00 +32°C° 0 mm 6 m/s 759 mmHg 65%
12:00 +32°C° 0 mm 6 m/s 758 mmHg 61%
13:00 +33°C° 0 mm 6 m/s 758 mmHg 58%
14:00 +32°C° 0 mm 7 m/s 757 mmHg 61%
15:00 +32°C° 0 mm 7 m/s 757 mmHg 63%
16:00 +30°C° 0 mm 7 m/s 757 mmHg 66%
17:00 +29°C° 0 mm 6 m/s 757 mmHg 70%
18:00 +28°C° 0 mm 6 m/s 757 mmHg 75%
19:00 +27°C° 0 mm 6 m/s 758 mmHg 80%
20:00 +27°C° 0 mm 6 m/s 758 mmHg 81%
21:00 +27°C° 0 mm 5 m/s 759 mmHg 81%
22:00 +27°C° 0 mm 5 m/s 759 mmHg 82%
23:00 +27°C° 0 mm 5 m/s 759 mmHg 83%

30 Outubro, Sexta-feira

Tempo Temperatura Precipitação Vento Pressão Humidade
00:00 +26°C° 0 mm 5 m/s 758 mmHg 83%
01:00 +26°C° 0 mm 5 m/s 758 mmHg 84%
02:00 +26°C° 0 mm 5 m/s 758 mmHg 86%
03:00 +26°C° 0 mm 4 m/s 757 mmHg 87%
04:00 +26°C° 0 mm 4 m/s 757 mmHg 89%
05:00 +26°C° 0.2 mm 4 m/s 758 mmHg 88%
06:00 +27°C° 0.2 mm 5 m/s 758 mmHg 87%
07:00 +27°C° 0.2 mm 5 m/s 759 mmHg 87%
08:00 +28°C° 0.3 mm 6 m/s 759 mmHg 82%
09:00 +29°C° 0.3 mm 6 m/s 759 mmHg 77%
10:00 +30°C° 0.3 mm 6 m/s 759 mmHg 71%
11:00 +30°C° 0.1 mm 6 m/s 759 mmHg 70%
12:00 +30°C° 0.1 mm 6 m/s 759 mmHg 68%
13:00 +32°C° 0.1 mm 6 m/s 758 mmHg 66%
14:00 +32°C° 0 mm 6 m/s 758 mmHg 67%
15:00 +30°C° 0 mm 7 m/s 758 mmHg 68%
16:00 +30°C° 0 mm 7 m/s 757 mmHg 69%
17:00 +29°C° 0 mm 6 m/s 757 mmHg 73%
18:00 +28°C° 0 mm 6 m/s 758 mmHg 77%
19:00 +27°C° 0 mm 5 m/s 758 mmHg 81%
20:00 +27°C° 0 mm 5 m/s 758 mmHg 82%
21:00 +27°C° 0 mm 5 m/s 759 mmHg 83%
22:00 +27°C° 0 mm 5 m/s 759 mmHg 84%
23:00 +27°C° 0 mm 5 m/s 759 mmHg 85%

31 Outubro, Sábado

Tempo Temperatura Precipitação Vento Pressão Humidade
00:00 +26°C° 0 mm 5 m/s 758 mmHg 87%
01:00 +26°C° 0 mm 5 m/s 758 mmHg 88%
02:00 +26°C° 0.1 mm 5 m/s 758 mmHg 88%
03:00 +26°C° 0.1 mm 4 m/s 757 mmHg 88%
04:00 +26°C° 0.1 mm 4 m/s 757 mmHg 88%
05:00 +26°C° 0 mm 4 m/s 757 mmHg 87%
06:00 +26°C° 0 mm 4 m/s 758 mmHg 86%
07:00 +26°C° 0 mm 3 m/s 758 mmHg 85%
08:00 +28°C° 0 mm 4 m/s 758 mmHg 79%
09:00 +29°C° 0 mm 4 m/s 759 mmHg 72%
10:00 +30°C° 0 mm 4 m/s 759 mmHg 65%
11:00 +32°C° 0.1 mm 5 m/s 759 mmHg 65%
12:00 +32°C° 0.1 mm 5 m/s 758 mmHg 65%
13:00 +32°C° 0.1 mm 5 m/s 758 mmHg 64%
14:00 +32°C° 0.1 mm 5 m/s 757 mmHg 66%
15:00 +32°C° 0.1 mm 6 m/s 757 mmHg 68%
16:00 +30°C° 0.1 mm 6 m/s 757 mmHg 70%
17:00 +29°C° 0 mm 6 m/s 757 mmHg 74%
18:00 +29°C° 0 mm 5 m/s 757 mmHg 78%
19:00 +28°C° 0 mm 5 m/s 757 mmHg 82%
20:00 +27°C° 0 mm 5 m/s 758 mmHg 84%
21:00 +27°C° 0 mm 5 m/s 758 mmHg 86%
22:00 +27°C° 0 mm 5 m/s 758 mmHg 87%
23:00 +27°C° 0 mm 5 m/s 758 mmHg 87%

1 Novembro, Domingo

Tempo Temperatura Precipitação Vento Pressão Humidade
00:00 +27°C° 0 mm 5 m/s 758 mmHg 87%
01:00 +27°C° 0 mm 5 m/s 757 mmHg 86%
02:00 +27°C° 0 mm 5 m/s 757 mmHg 87%
03:00 +26°C° 0 mm 4 m/s 757 mmHg 87%
04:00 +26°C° 0 mm 4 m/s 757 mmHg 87%
05:00 +27°C° 0.1 mm 4 m/s 757 mmHg 86%
06:00 +27°C° 0.1 mm 4 m/s 758 mmHg 85%
07:00 +27°C° 0.1 mm 4 m/s 758 mmHg 84%
08:00 +28°C° 0 mm 4 m/s 758 mmHg 78%
09:00 +29°C° 0 mm 5 m/s 758 mmHg 71%
10:00 +32°C° 0 mm 5 m/s 759 mmHg 65%
11:00 +32°C° 0 mm 5 m/s 758 mmHg 65%
12:00 +32°C° 0 mm 5 m/s 758 mmHg 65%
13:00 +32°C° 0 mm 6 m/s 757 mmHg 65%
14:00 +32°C° 0 mm 6 m/s 757 mmHg 65%
15:00 +32°C° 0 mm 6 m/s 756 mmHg 65%
16:00 +32°C° 0 mm 6 m/s 756 mmHg 66%
17:00 +30°C° 0 mm 6 m/s 756 mmHg 71%
18:00 +29°C° 0 mm 6 m/s 756 mmHg 77%
19:00 +28°C° 0 mm 6 m/s 756 mmHg 83%
20:00 +27°C° 0 mm 5 m/s 757 mmHg 84%
21:00 +27°C° 0 mm 5 m/s 757 mmHg 85%
22:00 +27°C° 0 mm 5 m/s 758 mmHg 86%
23:00 +27°C° 0 mm 5 m/s 758 mmHg 86%
Mostrar mais